Station ADKA2 - 9461380 - Adak Island, AK Image indicating link to RSS feed of recent meteorological observations for station ADKA2


Conditions at ADKA2 as of
(10:00 am HAST)
2000 GMT on 05/26/2024:
     

Click on the graph icon in the table below to see a time series plot of the last five days of that observation.

5-day plot - Wind Direction Wind Direction (WDIR): SE ( 130 deg true )
5-day plot - Wind Speed Wind Speed (WSPD): 15.0 kts
5-day plot - Wind Gust Wind Gust (GST): 20.0 kts
5-day plot - Atmospheric Pressure Atmospheric Pressure (PRES):30.23 in
5-day plot - Pressure Tendency Pressure Tendency (PTDY):-0.04 in ( Falling )
5-day plot - Water Temperature Water Temperature (WTMP): 41.0 °F
5-day plot - Wind Speed at 10 Meters Wind Speed at 10 meters (WSPD10M): 15.5 kts
5-day plot - Wind Speed at 20 Meters Wind Speed at 20 meters (WSPD20M): 15.5 kts
5-day plot -  Wind Speed, Wind Gust and Atmospheric Pressure Combined plot of Wind Speed, Gust, and Air Pressure
NOS Water Level Observation Network Water Level
Previous observations
TIME
(HAST)
5-day plot - Wind Direction
WDIR
 
5-day plot - Wind Speed
WSPD
kts
5-day plot - Wind Gust
GST
kts
5-day plot - Wave Height
WVHT
ft
5-day plot - Dominant Wave Period
DPD
sec
5-day plot - Average Wave Period
APD
sec
5-day plot - Mean Wave Direction
MWD
 
5-day plot - Atmospheric Pressure
PRES
in
5-day plot - Pressure Tendency
PTDY
in
5-day plot - Air Temperature
ATMP
°F
5-day plot - Water Temperature
WTMP
°F
5-day plot - Dew Point
DEWP
°F
5-day plot - Salinity
SAL
psu
5-day plot - Visibility
VIS
nmi
5-day plot - Tide (above MLLW)
TIDE
ft
2024-05-26 09:54 am SE 13.0 20.0----30.23-- 41.0----
2024-05-26 09:48 am SE 15.9 24.1----30.23-- 41.0----
2024-05-26 09:42 am SE 17.1 22.0----30.23-- 41.0----
2024-05-26 09:36 am SE 13.0 18.1----30.23-- 41.0----
2024-05-26 09:30 am SE 15.9 22.0----30.23- 40.6 41.0----
2024-05-26 09:24 am SE 15.9 22.0----30.23- 40.6 41.0----
2024-05-26 09:18 amESE 18.1 22.9----30.23-- 41.0----
2024-05-26 09:12 am SE 18.1 22.0----30.23-- 41.0----
2024-05-26 09:06 am SE 13.0 22.0----30.23-- 41.0----
2024-05-26 09:00 amESE 12.0 18.1----30.23-0.05 41.0 41.0----
2024-05-26 08:54 amESE 11.1 17.1----30.23- 41.0 41.0----
2024-05-26 08:48 am-------30.23- 41.0 41.0----
2024-05-26 08:42 am-------30.23- 41.2 41.0----
2024-05-26 08:36 am-------30.23- 41.2 41.0----
2024-05-26 08:30 amESE 12.0 18.1----30.23- 41.0 41.0----
2024-05-26 08:24 amESE 15.0 19.0----30.24- 41.0 41.0----
2024-05-26 08:18 am SE 15.9 20.0----30.24- 40.8 40.8----
2024-05-26 08:12 am SE 14.0 18.1----30.24- 40.8 40.8----
2024-05-26 08:06 am SE 13.0 15.9----30.25- 40.8 40.8----
2024-05-26 08:00 amESE 9.9 12.0------- 40.8----
2024-05-26 07:54 amESE 8.9 13.0------- 40.8----
2024-05-26 07:48 am SE 11.1 15.0----30.25- 40.8 40.8----
2024-05-26 07:42 am SE 11.1 13.0----30.26- 40.8 41.0----
2024-05-26 07:36 amESE 8.9 12.0----30.26- 40.8 41.0----
2024-05-26 07:30 am SE 8.9 12.0----30.26-- 41.0----
2024-05-26 07:24 am SE 6.0 9.9----30.26-- 41.0----
2024-05-26 07:18 am E 8.0 11.1----30.26- 40.6 41.0----
2024-05-26 07:12 am SE 8.9 11.1----30.26- 40.6 41.0----
2024-05-26 07:06 amESE 8.9 12.0----30.27- 40.6 41.0----
2024-05-26 07:00 amESE 8.9 13.0----30.27-0.06 40.5 41.0----
2024-05-26 06:54 am SE 8.9 13.0----30.27- 40.5 41.0----
2024-05-26 06:48 am SE 8.0 15.0----30.27- 40.3 41.0----
2024-05-26 06:42 am SE 8.9 13.0----30.27- 40.3 40.8----
2024-05-26 06:36 am SE 11.1 14.0----30.28- 40.3 40.8----
2024-05-26 06:30 am SE 12.0 15.9----30.28- 40.3 40.8----
2024-05-26 06:24 am SE 15.0 19.0----30.28- 40.3 40.8----
2024-05-26 06:18 am SE 12.0 15.0----30.28- 40.3 40.8----
2024-05-26 06:12 am SE 14.0 18.1----30.28- 40.3 40.8----
2024-05-26 06:06 am SE 13.0 15.9----30.28- 40.1 40.8----
2024-05-26 06:00 am SE 8.9 13.0----30.28-0.07 40.1 40.8----
2024-05-26 05:54 am SE 12.0 15.9----30.28- 40.1 40.8----
2024-05-26 05:48 am SE 8.0 14.0----30.29- 40.1 40.8----
2024-05-26 05:42 amESE 8.9 18.1----30.29- 40.3 40.8----
2024-05-26 05:36 amESE 13.0 15.9----30.28- 40.1 40.8----
2024-05-26 05:30 am SE 9.9 15.0----30.29- 40.1 40.8----
2024-05-26 05:24 am SE 9.9 13.0----30.29- 39.9 40.8----
2024-05-26 05:18 am SE 11.1 15.0----30.29- 39.9 41.0----
2024-05-26 05:12 am SE 12.0 14.0----30.29- 39.9 41.0----
2024-05-26 05:06 am SE 12.0 17.1----30.29- 39.7 41.0----
2024-05-26 05:00 am SE 8.9 14.0----30.29-0.07 39.7 41.0----
2024-05-26 04:54 am SE 8.0 14.0----30.29- 39.7 41.0----
2024-05-26 04:48 amESE 9.9 14.0----30.30- 39.7 41.0----
2024-05-26 04:42 amESE 12.0 15.9----30.30- 39.7 41.0----
2024-05-26 04:36 amESE 13.0 15.9----30.31- 39.6 41.0----
2024-05-26 04:30 am SE 12.0 14.0----30.31- 39.6 40.8----
2024-05-26 04:24 am SE 12.0 14.0----30.31- 39.6 40.8----
2024-05-26 04:18 amSSE 8.9 13.0----30.32- 39.6 40.8----
2024-05-26 04:12 amSSE 9.9 12.0----30.32- 39.6 40.8----
2024-05-26 04:06 am SE 9.9 12.0----30.32- 39.6 40.8----
2024-05-26 04:00 amSSE 8.9 12.0----30.33-0.05 39.4 40.8----
2024-05-26 03:54 amSSE 8.9 12.0----30.33- 39.2 40.8----
2024-05-26 03:48 am SE 9.9 13.0----30.33- 39.2 40.8----
2024-05-26 03:42 am SE 8.9 12.0----30.34- 39.2 40.8----
2024-05-26 03:36 amESE 9.9 13.0----30.34- 39.2 40.8----
2024-05-26 03:30 am SE 8.9 11.1----30.34-- 40.8----
2024-05-26 03:24 am SE 11.1 14.0----30.35-- 40.8----
2024-05-26 03:18 amESE 11.1 13.0----30.35-- 40.8----
2024-05-26 03:12 am SE 11.1 13.0----30.35-- 40.8----
2024-05-26 03:06 am SE 8.9 9.9----30.35-- 40.8----
2024-05-26 03:00 am SE 7.0 9.9----30.35-0.03- 40.8----
2024-05-26 02:54 amSSE 6.0 8.9----30.36-- 40.8----
2024-05-26 02:48 am S 2.9 11.1----30.36- 39.2 40.8----
2024-05-26 02:42 am SE 9.9 11.1----30.36- 39.4 40.8----
2024-05-26 02:36 amESE 5.1 9.9----30.36- 39.2 40.8----
2024-05-26 02:30 amESE 5.1 7.0----30.36- 39.2 40.8----
2024-05-26 02:24 am E 4.1 6.0----30.36- 39.0 40.8----
2024-05-26 02:18 am E 5.1 7.0----30.36- 38.8 40.8----
2024-05-26 02:12 amESE 6.0 8.0----30.36- 38.8 40.8----
2024-05-26 02:06 amESE 7.0 8.9----30.36- 38.7 40.8----
2024-05-26 02:00 am-------30.37-0.03 38.8-----
2024-05-26 01:54 am-------30.37- 38.8-----
2024-05-26 01:48 am SE 7.0 8.9----30.37- 38.8 40.8----
2024-05-26 01:42 am SE 8.0 8.9----30.37- 38.8 40.8----
2024-05-26 01:36 amSSE 6.0 8.0----30.37- 39.0 40.8----
2024-05-26 01:30 amESE 4.1 9.9----30.37- 39.2 40.8----
2024-05-26 01:24 amENE 9.9 11.1----30.37- 39.0 40.8----
2024-05-26 01:18 am E 7.0 9.9----30.37-- 40.8----
2024-05-26 01:12 amENE 7.0 8.9----30.37-- 40.8----
2024-05-26 01:06 amENE 7.0 8.9----30.37-- 40.8----
2024-05-26 01:00 am E 7.0 8.9----30.38-0.03- 40.8----
2024-05-26 12:54 am E 7.0 8.0----30.38-- 40.8----
2024-05-26 12:48 am E 6.0 8.0----30.38-- 40.8----
2024-05-26 12:42 amENE 7.0 8.0----30.38-- 40.8----
2024-05-26 12:36 amENE 8.0 9.9----30.38-- 40.8----
2024-05-26 12:30 amENE 8.9 9.9----30.38- 39.0 40.8----
2024-05-26 12:24 amENE 6.0 8.9----30.38- 39.2 40.8----
2024-05-26 12:18 amENE 8.9 11.1----30.38-- 40.8----
2024-05-26 12:12 amENE 8.0 11.1----30.38-- 40.8----
2024-05-26 12:06 amENE 6.0 9.9----30.38-- 40.8----
2024-05-26 12:00 amENE 5.1 7.0----30.39-0.02 39.4 40.8----
2024-05-25 11:54 pm E 5.1 7.0----30.39- 39.4 40.8----
2024-05-25 11:48 pm E 6.0 8.0----30.39- 39.4 40.8----
2024-05-25 11:42 pmENE 2.9 7.0----30.39- 39.6 40.8----
2024-05-25 11:36 pmENE 5.1 6.0----30.39- 39.6 40.8----
2024-05-25 11:30 pmENE 5.1 7.0----30.39- 39.6 40.8----
2024-05-25 11:24 pm E 5.1 6.0----30.40- 39.7 40.8----
2024-05-25 11:18 pm E 6.0 7.0----30.40- 39.6 40.8----
2024-05-25 11:12 pm E 5.1 7.0----30.40- 39.6 40.8----
2024-05-25 11:06 pm E 4.1 6.0----30.40- 39.6 40.8----
2024-05-25 11:00 pm E 4.1 4.1----30.40-0.02 39.6 40.8----
2024-05-25 10:54 pmENE 4.1 5.1----30.40- 39.7 41.0----
2024-05-25 10:48 pmENE 4.1 5.1----30.40-- 41.0----
2024-05-25 10:42 pmENE 4.1 5.1----30.40-- 40.8----
2024-05-25 10:36 pm NE 4.1 5.1----30.40-- 40.8----
2024-05-25 10:30 pmENE 4.1 5.1----30.40- 39.6 40.8----
2024-05-25 10:24 pmENE 4.1 5.1----30.40- 39.6 40.8----
2024-05-25 10:18 pmENE 5.1 6.0----30.40- 39.4 40.8----
2024-05-25 10:12 pmENE 5.1 5.1----30.40- 39.4 40.8----
2024-05-25 10:06 pmENE 4.1 5.1----30.40- 39.6 40.8----
2024-05-25 10:00 pm E 2.9 5.1----30.40+0.00 39.6 40.8----
2024-05-25 09:54 pm E 2.9 4.1----30.40- 39.6 40.8----
2024-05-25 09:48 pmENE 4.1 5.1----30.40- 39.6 40.8----
2024-05-25 09:42 pmENE 4.1 5.1----30.41- 39.6 40.8----
2024-05-25 09:36 pmENE 2.9 5.1----30.41- 39.6 41.0----
2024-05-25 09:30 pmENE 5.1 5.1----30.41- 39.6 40.8----
2024-05-25 09:24 pmENE 5.1 5.1----30.42- 39.6 40.8----
2024-05-25 09:18 pmENE 4.1 5.1----30.42- 39.4 40.8----
2024-05-25 09:12 pmENE 5.1 6.0----30.41- 39.6 40.8----
2024-05-25 09:06 pm NE 5.1 6.0----30.41- 39.6 40.8----
2024-05-25 09:00 pmENE 4.1 6.0----30.41+0.00 39.6 40.8----
2024-05-25 08:54 pmENE 4.1 7.0----30.41- 39.7 40.8----
2024-05-25 08:48 pm NE 5.1 7.0----30.42- 39.6 40.8----
2024-05-25 08:42 pm NE 5.1 6.0----30.42- 39.7 40.8----
2024-05-25 08:36 pm NE 6.0 7.0----30.42- 39.6 40.8----
2024-05-25 08:30 pmENE 6.0 8.0----30.42- 39.6 40.8----
2024-05-25 08:24 pmENE 7.0 8.0----30.41- 39.4 40.8----
2024-05-25 08:18 pm NE 6.0 8.0----30.42- 39.6 40.8----
2024-05-25 08:12 pm NE 6.0 8.0----30.42- 39.6 40.8----
2024-05-25 08:06 pmENE 6.0 8.0----30.42- 39.4 40.8----
2024-05-25 08:00 pmENE 6.0 8.0----30.42+0.00 39.4 40.8----
2024-05-25 07:54 pmENE 6.0 8.0----30.41- 39.2 40.8----
2024-05-25 07:48 pmENE 7.0 8.9----30.41- 39.2 41.0----
2024-05-25 07:42 pmENE 7.0 8.9----30.41- 39.2 40.8----
2024-05-25 07:36 pmENE 8.0 9.9----30.41- 39.2 41.0----
2024-05-25 07:30 pmENE 7.0 8.9----30.41- 39.4 40.8----
2024-05-25 07:24 pmENE 8.0 9.9----30.41- 39.2 41.0----
2024-05-25 07:18 pmENE 7.0 8.9----30.41- 39.2 40.8----
2024-05-25 07:12 pmENE 8.9 9.9----30.41- 39.2 41.0----
2024-05-25 07:06 pmENE 8.0 9.9----30.41- 39.2 41.0----
2024-05-25 07:00 pmENE 8.9 11.1----30.41-0.01 39.2 41.0----
2024-05-25 06:54 pmENE 8.9 11.1----30.41- 39.4 41.0----
2024-05-25 06:48 pm NE 9.9 11.1----30.41- 39.2 41.0----
2024-05-25 06:42 pmENE 8.9 11.1----30.41- 39.4 41.0----
2024-05-25 06:36 pmENE 8.9 11.1----30.41- 39.4 41.0----
2024-05-25 06:30 pmENE 8.9 11.1----30.40- 39.6 41.0----
2024-05-25 06:24 pmENE 8.9 11.1----30.40- 39.6 41.0----
2024-05-25 06:18 pmENE 8.9 11.1----30.40- 39.4 41.0----
2024-05-25 06:12 pmENE 8.0 11.1----30.40- 39.6 41.0----
2024-05-25 06:06 pmENE 8.9 11.1----30.40- 39.6 41.0----
2024-05-25 06:00 pmENE 8.0 9.9----30.41-0.01 39.7 41.0----
2024-05-25 05:54 pmENE 8.0 9.9----30.41- 39.9 41.0----
2024-05-25 05:48 pmENE 8.9 9.9----30.41- 39.6 41.0----
2024-05-25 05:42 pmENE 8.0 11.1----30.41- 39.7 41.0----
2024-05-25 05:36 pmENE 8.9 9.9----30.41- 39.7 41.2----
2024-05-25 05:30 pmENE 8.0 9.9----30.42- 39.7 41.2----
2024-05-25 05:24 pmENE 8.0 11.1----30.42- 39.7 41.0----
2024-05-25 05:18 pmENE 8.9 11.1----30.42- 39.7 40.8----
2024-05-25 05:12 pmENE 9.9 12.0----30.42- 39.7 40.8----
2024-05-25 05:06 pmENE 8.9 11.1----30.42- 40.1 40.8----
2024-05-25 05:00 pmENE 8.9 12.0----30.42+0.00 40.1 40.8----
2024-05-25 04:54 pmENE 9.9 11.1----30.42- 39.7 40.8----
2024-05-25 04:48 pmENE 8.9 11.1----30.42- 39.7 40.8----
2024-05-25 04:42 pmENE 8.9 9.9----30.42- 39.7 40.8----
2024-05-25 04:36 pmENE 8.9 11.1----30.42- 39.9 40.8----
2024-05-25 04:30 pmENE 8.0 11.1----30.42- 40.1 40.8----
2024-05-25 04:24 pmENE 8.9 11.1----30.42- 39.9 40.8----
2024-05-25 04:18 pmENE 7.0 9.9----30.42- 40.1 40.8----
2024-05-25 04:12 pm E 8.0 11.1----30.42- 39.9 40.6----
2024-05-25 04:06 pmENE 8.9 11.1----30.42- 39.7 40.6----
2024-05-25 04:00 pmENE 8.0 9.9----30.42+0.00 39.9 40.6----
2024-05-25 03:54 pmENE 8.0 11.1----30.42- 39.9 40.8----
2024-05-25 03:48 pmENE 8.9 9.9----30.42- 39.9 40.8----
2024-05-25 03:42 pmENE 8.0 9.9----30.42- 39.9 40.8----
2024-05-25 03:36 pmENE 8.0 9.9----30.42- 39.9 40.8----
2024-05-25 03:30 pmENE 8.0 9.9----30.42- 39.9 40.8----
2024-05-25 03:24 pmENE 8.9 9.9----30.42- 39.9 40.8----
2024-05-25 03:18 pm E 8.0 9.9----30.42- 39.9 40.8----
2024-05-25 03:12 pmENE 7.0 11.1----30.42- 40.1 40.8----
2024-05-25 03:06 pmENE 8.9 11.1----30.42- 39.9 40.8----
2024-05-25 03:00 pmENE 9.9 11.1----30.42- 39.9 40.8----
2024-05-25 02:54 pmENE 8.0 9.9----30.42- 39.9 40.8----
2024-05-25 02:48 pmENE 7.0 8.9----30.42- 40.1 40.8----
2024-05-25 02:42 pm E 8.9 9.9----30.42- 39.7 40.8----
2024-05-25 02:36 pm E 7.0 9.9----30.42- 39.9 40.8----
2024-05-25 02:30 pmENE 8.0 9.9----30.42- 39.9 40.8----
2024-05-25 02:24 pmENE 8.0 9.9----30.42- 40.1 40.6----
2024-05-25 02:18 pm E 8.0 9.9----30.42- 40.1 40.5----
2024-05-25 02:12 pmENE 8.0 9.9----30.42- 40.3 40.6----
2024-05-25 02:06 pmENE 8.0 8.9----30.42- 40.1 40.6----
2024-05-25 02:00 pmENE 8.0 8.9----30.42+0.00 39.9 40.5----
2024-05-25 01:54 pmENE 8.0 8.9----30.42- 40.1 40.5----
2024-05-25 01:48 pm-------30.42- 40.1 40.5----
2024-05-25 01:42 pm-------30.42- 39.9 40.5----
2024-05-25 01:36 pm-------30.42- 39.9 40.5----
2024-05-25 01:30 pm E 7.0 8.0----30.42-- 40.5----
2024-05-25 01:24 pmENE 7.0 8.9----30.42-- 40.5----
2024-05-25 01:00 pm E 6.0 8.9----30.42+0.00 39.6 40.3----
2024-05-25 12:54 pmENE 8.0 8.9----30.42- 39.6 40.3----
2024-05-25 12:48 pmENE 8.0 8.9----30.42-- 40.3----
2024-05-25 12:42 pmENE 7.0 8.9----30.43-- 40.3----
2024-05-25 12:36 pmENE 7.0 8.9----30.43-- 40.3----
2024-05-25 12:30 pmENE 7.0 8.0----30.42- 39.7 40.3----
2024-05-25 12:24 pmENE 7.0 8.0----30.42- 39.6 40.3----
2024-05-25 12:18 pmENE 7.0 8.0----30.43- 39.7 40.3----
2024-05-25 12:12 pmENE 6.0 8.0----30.42- 39.9 40.3----
2024-05-25 12:06 pmENE 5.1 7.0----30.42- 39.7 40.3----
2024-05-25 12:00 pmENE 6.0 7.0------ 39.6 40.3----
2024-05-25 11:54 am E 5.1 7.0------ 39.6 40.3----
2024-05-25 11:48 amENE 6.0 8.0----30.43-- 40.3----
2024-05-25 11:42 amENE 6.0 8.0----30.43-- 40.3----
2024-05-25 11:36 amENE 6.0 7.0----30.42-- 40.3----
2024-05-25 11:30 amENE 6.0 7.0----30.42- 39.4-----
2024-05-25 11:24 amENE 6.0 8.9----30.42- 39.4-----
2024-05-25 11:18 amENE 7.0 8.0----30.42- 39.2 40.3----
2024-05-25 11:12 amENE 7.0 8.0----30.42- 39.2 40.3----
2024-05-25 11:06 amENE 7.0 8.9----30.42- 39.4 40.3----
2024-05-25 11:00 amENE 8.0 8.9----30.42+0.02 39.4 40.3----
2024-05-25 10:54 amENE 8.0 8.9----30.42- 39.4 40.3----
2024-05-25 10:48 amENE 8.0 8.9----30.42-- 40.3----
2024-05-25 10:42 amENE 8.0 8.9----30.42-- 40.3----
2024-05-25 10:36 amENE 7.0 8.0----30.42-- 40.3----
2024-05-25 10:30 amENE 7.0 8.9----30.42- 39.6 40.3----
2024-05-25 10:24 amENE 8.0 8.9----30.42- 39.6 40.3----
2024-05-25 10:18 amENE 7.0 8.0----30.42- 39.7 40.3----
2024-05-25 10:12 amENE 6.0 8.9----30.42- 39.9 40.3----
2024-05-25 10:06 amENE 6.0 7.0----30.42- 40.1 40.3----
2024-05-25 10:00 am-------30.42+0.02 39.9 40.1----
2024-05-25 09:54 am-------30.42- 40.1 40.1----